Location: Charbonni�res
(45.9952°N, 2.9982°E)
Time: 23:15:45
(UTC+00:00)

FENGYUN 1C DEB - Visible Passes

Search period start: 24 June 2021 00:00
Search period end: 04 July 2021 00:00
Orbit: 775 x 841 km, 99.0° (Epoch: 24 June)

Date Brightness Start Highest point End Pass type
(mag) Time Alt. Az. Time Alt. Az. Time Alt. Az.
24 Jun ? 01:00:46 10° E 01:03:40 15° NE 01:06:35 10° NNE visible
24 Jun ? 02:37:30 10° SSE 02:42:41 90° NE 02:48:00 10° NNW visible
25 Jun ? 02:13:24 10° SSE 02:18:28 57° ENE 02:23:38 10° N visible
26 Jun ? 01:49:36 10° SE 01:54:19 36° ENE 01:59:08 10° N visible
27 Jun ? 01:26:11 10° ESE 01:30:16 24° ENE 01:34:25 10° N visible
27 Jun ? 03:04:37 10° S 03:09:42 54° W 03:14:54 10° NNW visible
28 Jun ? 01:03:15 10° E 01:06:18 16° NE 01:09:24 10° NNE visible
28 Jun ? 02:40:09 10° SSE 02:45:22 87° WSW 02:50:43 10° NNW visible
29 Jun ? 00:41:50 10° ENE 00:42:26 10° NE 00:43:03 10° NE visible
29 Jun ? 02:16:00 10° SSE 02:21:07 59° ENE 02:26:22 10° N visible
30 Jun ? 01:52:11 10° SE 01:56:58 38° ENE 02:01:51 10° N visible
01 Jul ? 01:28:43 10° ESE 01:32:54 25° ENE 01:37:10 10° N visible
01 Jul ? 03:07:16 10° S 03:12:21 52° W 03:17:35 10° NNW visible
02 Jul ? 01:05:44 10° E 01:08:56 17° NE 01:12:11 10° NNE visible
02 Jul ? 02:42:46 10° SSE 02:48:01 84° WSW 02:53:24 10° NNW visible
03 Jul ? 00:43:51 10° ENE 00:45:03 11° NE 00:46:16 10° NE visible
03 Jul ? 02:18:36 10° SSE 02:23:46 62° ENE 02:29:03 10° N visible
